Weather History for Ord, NE

Change the Weather History Date:

Friday, June 7, 2013

  Actual Average Record
Temperature  
Mean Temperature 60 °F 67 °F  
Max Temperature 77 °F 79 °F 98 °F (2004)
Min Temperature 43 °F 55 °F 43 °F (2013)
Degree Days  
Heating Degree Days 5    
Month to date heating degree days 45  
Since 1 June heating degree days 45  
Cooling Degree Days 0    
Month to date cooling degree days 1  
Year to date cooling degree days 48  
Since 1 June cooling degree days 1  
Growing Degree Days 9 (Base 50)    
Moisture  
Dew Point 48 °F    
Average Humidity 67    
Maximum Humidity 96    
Minimum Humidity 38    
Precipitation  
Precipitation 0.00 in 0.17 in 3.81 in (1962)
Month to date precipitation 0.01 1.23  
Year to date precipitation 10.15 9.89  
Sea Level Pressure  
Sea Level Pressure 29.97 in    
Wind  
Wind Speed 5 mph (South)    
Max Wind Speed 16 mph    
Max Gust Speed 21 mph    
Visibility 10 miles    
Events      
T = Trace of Precipitation, MM = Missing Value Source: NWS Daily Summary

Daily Weather History Graph

Daily Weather History Graph

Search for Another Location

Airport:

Trip Planner

Search our weather history database for the weather conditions in past years. The results will help you decide how hot, cold, wet, or windy it might be!

Date:

Astronomy

Jun. 07, 2013 Rise Set
Actual Time 6:01 AM CDT 9:07 PM CDT
Civil Twilight 5:28 AM CDT 9:41 PM CDT
Nautical Twilight 4:44 AM CDT 10:25 PM CDT
Astronomical Twilight 3:53 AM CDT 11:16 PM CDT
Moon 5:26 AM CDT (6/7) 8:22 PM CDT (6/7)
Length of Visible Light 16h 13m
Length of Day
15h 06m
Waning Crescent, 1% of the Moon is Illuminated
Jun 7
Waning Crescent
Jun 8
New
Jun 16
First Quarter
Jun 23
Full
Jun 29
Last Quarter

Hourly Weather History & Observations

Time (CDT) Temp. Windchill Dew Point Humidity Pressure Visibility Wind Dir Wind Speed Gust Speed Precip Events Conditions
12:53 AM 48.9 °F - 45.0 °F 86% 30.06 in 10.0 mi SW 4.6 mph - N/A   Clear
1:53 AM 48.0 °F - 44.1 °F 86% 30.06 in 10.0 mi Calm Calm - N/A   Clear
2:53 AM 46.0 °F - 43.0 °F 89% 30.06 in 10.0 mi Calm Calm - N/A   Clear
3:53 AM 45.0 °F - 43.0 °F 93% 30.06 in 10.0 mi Calm Calm - N/A   Clear
4:53 AM 43.0 °F 39.5 °F 41.0 °F 93% 30.07 in 10.0 mi NW 5.8 mph - N/A   Clear
5:53 AM 44.1 °F - 41.0 °F 89% 30.06 in 10.0 mi Calm Calm - N/A   Partly Cloudy
6:53 AM 46.9 °F - 44.1 °F 90% 30.06 in 10.0 mi NNW 3.5 mph - N/A   Partly Cloudy
7:53 AM 52.0 °F - 46.9 °F 83% 30.05 in 10.0 mi Calm Calm - N/A   Clear
8:53 AM 59.0 °F - 50.0 °F 72% 30.05 in 10.0 mi Calm Calm - N/A   Clear
9:53 AM 64.9 °F - 51.1 °F 61% 30.04 in 10.0 mi Variable 3.5 mph - N/A   Clear
10:53 AM 66.9 °F - 48.9 °F 52% 30.03 in 10.0 mi South 5.8 mph - N/A   Clear
11:53 AM 69.1 °F - 46.9 °F 45% 30.01 in 10.0 mi Calm Calm - N/A   Clear
12:53 PM 73.0 °F - 48.9 °F 42% 29.99 in 10.0 mi NW 5.8 mph - N/A   Partly Cloudy
1:53 PM 73.9 °F - 48.0 °F 40% 29.96 in 10.0 mi NW 5.8 mph - N/A   Clear
2:53 PM 73.9 °F - 48.0 °F 40% 29.94 in 10.0 mi Calm Calm - N/A   Partly Cloudy
3:53 PM 75.9 °F - 48.9 °F 38% 29.92 in 10.0 mi Variable 6.9 mph - N/A   Partly Cloudy
4:53 PM 75.9 °F - 48.0 °F 37% 29.90 in 10.0 mi South 5.8 mph - N/A   Clear
5:53 PM 75.9 °F - 50.0 °F 40% 29.88 in 10.0 mi ESE 4.6 mph - N/A   Clear
6:53 PM 75.9 °F - 51.1 °F 42% 29.86 in 10.0 mi SSE 8.1 mph - N/A   Clear
7:53 PM 75.0 °F - 50.0 °F 41% 29.84 in 10.0 mi South 6.9 mph - N/A   Clear
8:53 PM 71.1 °F - 52.0 °F 51% 29.84 in 10.0 mi SSE 5.8 mph - N/A   Clear
9:53 PM 69.1 °F - 50.0 °F 51% 29.83 in 10.0 mi SE 10.4 mph - N/A   Clear
10:53 PM 64.9 °F - 50.0 °F 58% 29.82 in 10.0 mi SSE 10.4 mph - N/A   Clear
11:53 PM 64.9 °F - 51.1 °F 61% 29.80 in 10.0 mi South 9.2 mph - N/A   Clear